Berlin, MD

2:37 AM EST on February 22, 2017 (GMT -0500)
Ocean City Municipal

Weather History for KOXB - January, 2014

Change the Weather History Date:

Saturday, January 25, 2014

  Actual Average (KSBY) Record (KSBY)
Temperature  
Mean Temperature 27 °F -  
Max Temperature 33 °F 46 °F 75 °F (1950)
Min Temperature 21 °F 30 °F 4 °F (2003)
Degree Days  
Heating Degree Days 38    
Moisture  
Dew Point 12 °F    
Average Humidity 51    
Maximum Humidity 72    
Minimum Humidity 42    
Precipitation  
Precipitation 0.00 in - - ()
Sea Level Pressure  
Sea Level Pressure 29.76 in    
Wind  
Wind Speed 17 mph (SW)    
Max Wind Speed 25 mph    
Max Gust Speed 40 mph    
Visibility 9 miles    
Events Snow    
Averages and records for this station are not official NWS values.
T = Trace of Precipitation, MM = Missing Value Source: NWS Daily Summary

Daily Weather History Graph

Daily Weather History Graph

Search for Another Location

Airport or City:

Trip Planner

Search our weather history database for the weather conditions in past years. The results will help you decide how hot, cold, wet, or windy it might be!

Date:

Astronomy

Jan. 25, 2014 Rise Set
Actual Time 7:10 AM EST 5:15 PM EST
Civil Twilight 6:42 AM EST 5:43 PM EST
Nautical Twilight 6:10 AM EST 6:15 PM EST
Astronomical Twilight 5:39 AM EST 6:46 PM EST
Moon 1:40 AM EST (1/25) 12:13 PM EST (1/25)
Length of Visible Light 11h 00m
Length of Day
10h 04m
Waning Crescent, 34% of the Moon is Illuminated
Jan 25
Waning Crescent
Jan 30
New
Feb 6
First Quarter
Feb 14
Full
Feb 22
Last Quarter

Hourly Weather History & Observations

Time (EST) Temp. Windchill Dew Point Humidity Pressure Visibility Wind Dir Wind Speed Gust Speed Precip Events Conditions
12:53 AM 21.9 °F 8.7 °F 5.0 °F 48% 30.18 in 10.0 mi SW 15.0 mph 21.9 mph N/A   Clear
1:53 AM 23.0 °F 8.7 °F 5.0 °F 46% 30.15 in 10.0 mi SW 18.4 mph 31.1 mph N/A   Clear
2:53 AM 21.9 °F - 6.1 °F 51% 30.11 in 10.0 mi North - - N/A   Clear
3:53 AM 21.9 °F 8.2 °F 7.0 °F 53% 30.07 in 10.0 mi SW 16.1 mph 28.8 mph N/A   Clear
4:53 AM 23.0 °F 8.7 °F 7.0 °F 50% 30.01 in 10.0 mi SW 18.4 mph 33.4 mph N/A   Clear
5:53 AM 24.1 °F 9.8 °F 7.0 °F 48% 29.98 in 10.0 mi SW 19.6 mph 31.1 mph N/A   Clear
6:53 AM 25.0 °F 10.9 °F 8.1 °F 49% 29.97 in 10.0 mi SW 19.6 mph 31.1 mph N/A   Clear
7:53 AM 26.1 °F 12.7 °F 10.9 °F 53% 29.93 in 10.0 mi SW 18.4 mph 32.2 mph N/A   Clear
8:53 AM 27.0 °F 11.9 °F 12.0 °F 53% 29.88 in 10.0 mi SW 25.3 mph 40.3 mph N/A   Clear
9:53 AM 28.0 °F 14.6 °F 10.0 °F 47% 29.86 in 10.0 mi SW 20.7 mph 36.8 mph N/A   Clear
10:53 AM 28.9 °F 15.8 °F 10.9 °F 47% 29.80 in 10.0 mi SW 20.7 mph 34.5 mph N/A   Partly Cloudy
11:53 AM 30.0 °F 17.2 °F 12.0 °F 47% 29.73 in 10.0 mi SW 20.7 mph 35.7 mph N/A   Overcast
12:53 PM 30.0 °F 18.7 °F 10.9 °F 45% 29.66 in 10.0 mi SW 16.1 mph 35.7 mph N/A   Overcast
1:53 PM 30.0 °F 17.5 °F 14.0 °F 51% 29.61 in 9.0 mi SW 19.6 mph 33.4 mph 0.00 in Snow Light Snow
2:53 PM 30.9 °F 22.8 °F 16.0 °F 54% 29.57 in 10.0 mi SW 9.2 mph - 0.00 in   Overcast
3:53 PM 28.9 °F 17.7 °F 19.0 °F 67% 29.56 in 2.0 mi WSW 15.0 mph 29.9 mph 0.00 in Snow Light Snow
4:00 PM 28.9 °F 17.3 °F 19.9 °F 69% 29.56 in 1.5 mi SW 16.1 mph 27.6 mph 0.00 in Snow Light Snow
4:07 PM 28.9 °F 18.6 °F 21.0 °F 72% 29.55 in 3.0 mi SW 12.7 mph 24.2 mph 0.00 in Snow Light Snow
4:53 PM 32.0 °F 22.5 °F 17.1 °F 54% 29.52 in 10.0 mi SW 12.7 mph 23.0 mph 0.00 in   Overcast
5:53 PM 33.1 °F - 12.9 °F 43% 29.54 in 10.0 mi North - - N/A   Clear
6:53 PM 33.1 °F - 12.0 °F 42% 29.55 in 10.0 mi North - - N/A   Overcast
7:53 PM 33.1 °F - 12.0 °F 42% 29.56 in 10.0 mi North - - N/A   Overcast
8:53 PM 32.0 °F - 12.0 °F 44% 29.57 in 10.0 mi North - - N/A   Partly Cloudy
9:53 PM 32.0 °F 24.8 °F 14.0 °F 48% 29.59 in 10.0 mi West 8.1 mph - N/A   Clear
10:53 PM 33.1 °F - 16.0 °F 50% 29.61 in 10.0 mi North - - N/A   Clear
11:53 PM 32.0 °F 24.8 °F 17.1 °F 54% 29.63 in 10.0 mi West 8.1 mph - N/A   Clear